Погода в Новоалександровке

Россия / Тюменская область     55°23′35″N   68°51′27″E
темп.,
°C
ветер,
м/с
пор.,
м/с
влажн.,
%
обл.,
%
осадки,
мм/ч
давл.,
гПа
погр.,
м
12 мая, ср
ср1223:00+14зсз333899 0.0 102636
02:00+13зсз474351 0.0 102596
05:00+11зсз46485 0.0 102586
08:00+18зсз58345 0.0 1025432
11:00+20сз5829100 0.0 1024900
14:00+22ссз7933100 0.0 10232070
17:00+21ссз7932100 0.0 10241786
20:00+16с4846100 0.0 1024163
13 мая, чт
чт1323:00+13с3651100 0.0 1025120
02:00+11сз225494 0.0 102521
05:00+12з375448 0.0 1025154
08:00+17зсз6114865 0.0 1024571
11:00+23сз810387 0.0 10221853
14:00+25сз793464 0.0 10212550
17:00+24с6939100 0.0 10211861
20:00+19с4854100 0.0 1023303
14 мая, пт
пт1423:00+15с36755 0.0 1025106
02:00+12ссв35765 0.0 102691
05:00+11св33785 0.0 102856
08:00+16в22575 0.0 1029385
11:00+21с12325 0.0 10281227
14:00+24з232313 0.0 10271741
17:00+25з3424100 0.0 10261985
20:00+20юз3333100 0.0 102531
15 мая, сб
сб1523:00+18юз48368 0.0 1024112
02:00+17юз5124251 0.0 1023195
05:00+16зюз512525 0.0 1023200
08:00+23з694360 0.0 1022470
11:00+28з58295 0.0 10211630
14:00+30зсз7923100 0.0 10193045
17:00+29зсз682377 0.0 10192770
20:00+23з3438100 0.0 101843
16 мая, вс
вс1623:00+20з484247 0.0 1018103
02:00+19зюз410495 0.0 1017156
05:00+17з4105831 0.0 1017178
08:00+22зсз6114433 0.0 1017563
11:00+26сз693677 0.0 10171679
14:00+28сз7103224 0.0 10172686
17:00+28ссз79329 0.0 10172598
20:00+23ссв334866 0.0 101822